www.pogodaiklimat.ru
Время
и дата
09:53 26.05
10:53 26.05
11:53 26.05
12:53 26.05
13:53 26.05
14:53 26.05
15:53 26.05
16:53 26.05
17:53 26.05
18:53 26.05
19:53 26.05
20:53 26.05
21:53 26.05
22:53 26.05
23:53 26.05
00:53 27.05
01:53 27.05
02:53 27.05
03:53 27.05
04:53 27.05
05:53 27.05
06:53 27.05
07:53 27.05
08:53 27.05
09:53 27.05
10:53 27.05
11:53 27.05
12:53 27.05
13:53 27.05
14:53 27.05
15:53 27.05
16:53 27.05
17:53 27.05
18:53 27.05
19:53 27.05
20:53 27.05
21:53 27.05
22:53 27.05
23:53 27.05
00:53 28.05
01:53 28.05
02:53 28.05
03:53 28.05
04:53 28.05
05:53 28.05
06:53 28.05
07:53 28.05
08:53 28.05
Ветер
(напр.,м/с)
Видим. Явления Облачность Т
(С)
Тd
(С)
f
(%)
Тe
(С)
Тes
(С)
Комфортность P
(гПа)
Po
(гПа)
Тmin
(С)
Tmax
(С)
R
(мм)
R24
(мм)
S
(см)
штиль 0 16 км ясно +16.7 +5.0 46 +17 +32 опасность
простуды
1018.8 972.3 +6.1 +16.7
нст 2 16 км ясно +19.4 +5.0 39 +20 +36 опасность
простуды
1018.2 971.7
штиль 0 16 км ясно +21.7 +4.4 32 +22 +46 комфорт 1017.7 971.4
СЗ 3 16 км ясно +23.3 +1.7 24 +23 +39 комфорт 1017.2 970.7
штиль 0 16 км ясно +23.9 +2.8 25 +23 +49 комфорт 1016.6 970.4
ЮЗ 3 16 км ясно +25.6 +3.3 24 +25 +38 комфорт 1016.1 969.7
нст 3 16 км ясно +25.6 +2.8 23 +24 +35 комфорт 1015.9 969.4 +16.7 +26.1
З 2 16 км ясно +26.1 +2.8 22 +25 +33 комфорт 1015.5 969.1
З 3 16 км ясно +25.6 +3.3 24 +25 +29 комфорт 1015.3 969.1
З 3 16 км ясно +25.0 +3.9 25 +24 +26 комфорт 1015.5 969.1
С 3 16 км ясно +21.1 +6.7 39 +22 +22 комфорт 1016.1 969.7
С 3 16 км ясно +18.9 +6.7 45 +20 +20 1017.1 970.7
З 2 16 км ясно +18.3 +6.7 47 +19 +19 1017.5 971.4 +17.2 +26.1
Ю 2 16 км ясно +16.1 +6.7 54 +16 +16 1017.9 971.7
штиль 0 16 км ясно +15.6 +6.7 55 +16 +16 1017.9 971.7
штиль 0 16 км ясно +14.4 +7.2 62 +14 +14 1018.0 971.7
В 2 16 км ясно +13.3 +6.7 64 +13 +13 1018.2 972.0
штиль 0 16 км ясно +11.7 +6.7 71 +11 +11 1018.2 972.0
штиль 0 16 км ясно +11.1 +6.7 74 +11 +11 1018.3 972.0 +10.6 +18.9
СВ 2 16 км ясно +10.6 +6.1 74 +9 +9 1018.5 972.3
штиль 0 16 км ясно +11.7 +6.7 71 +11 +11 1019.0 972.6
нст 2 16 км ясно +13.3 +6.7 64 +13 +14 1019.4 973.0
СЗ 2 16 км ясно +15.6 +7.2 57 +16 +19 1019.3 973.0
штиль 0 16 км ясно +17.8 +7.2 50 +18 +27 1018.6 972.3
нст 2 16 км ясно +19.4 +7.8 47 +21 +32 комфорт 1018.0 971.7 +10.0 +19.4
З 4 16 км ясно +22.8 +7.2 37 +24 +34 комфорт 1017.1 971.0
нст 2 16 км ясно +24.4 +7.2 33 +25 +43 комфорт 1016.1 970.1
ЮЗ 3 16 км ясно +26.7 +6.1 27 +26 +42 жарко 1015.3 969.4
нст 3 16 км ясно +27.8 +6.1 25 +27 +43 жарко 1014.4 968.5
З 6
{9}
16 км ясно +28.9 +6.1 24 +28 +34 жарко 1013.8 967.8
З 6 16 км ясно +29.4 +5.0 21 +28 +33 жарко 1013.5 967.5 +20.0 +29.4
З 5 16 км ясно +28.9 +4.4 21 +27 +32 жарко 1013.0 967.2
СЗ 7 16 км ясно +27.2 +7.2 28 +27 +28 жарко 1013.4 967.5
СЗ 5 16 км ясно +25.0 +8.3 35 +25 +26 комфорт 1014.4 968.5
СЗ 2 16 км ясно +22.8 +8.9 41 +24 +24 комфорт 1015.2 969.1
СЗ 3 16 км ясно +21.1 +8.9 46 +22 +22 комфорт 1016.0 969.7
СЗ 2 16 км ясно +19.4 +8.9 51 +21 +21 комфорт 1016.3 970.1 +19.4 +29.4
штиль 0 16 км ясно +18.9 +9.4 54 +19 +19 1016.1 970.1
штиль 0 16 км ясно +17.8 +9.4 58 +18 +18 1016.1 970.1
ЮЗ 3 16 км ясно +17.8 +8.9 56 +18 +18 1016.0 970.1
З 3 16 км ясно +16.7 +8.3 58 +17 +17 1016.2 970.4
штиль 0 16 км ясно +15.0 +8.9 67 +15 +15 1016.5 970.7
штиль 0 16 км ясно +14.4 +8.9 70 +14 +14 1016.8 971.0 +14.4 +20.0
штиль 0 16 км ясно +13.3 +8.3 72 +13 +13 1017.4 971.4
штиль 0 16 км ясно +13.9 +8.9 72 +14 +14 1017.9 971.7
штиль 0 16 км ясно +16.1 +8.9 62 +16 +17 1018.1 972.0
С 2 16 км ясно +17.8 +8.9 56 +18 +22 1018.3 972.3
З 5 16 км ясно +19.4 +6.7 44 +20 +24 1018.1 972.0
Местоположение метеостанции Rogue Valley International Airport: широта 42.3811 долгота -122.8722 высота над уровнем моря 395 м.
В архиве по умолчанию представлена погода в Медфорде за последние 1-2 суток. Обновление информации о фактической погоде в базе происходит ежечасно! Архивные данные за месяц целиком и за предыдущие месяцы Вы можете получить, выбрав интересующий диапазон дат из раскрывающегося списка и нажав кнопку "Ввод!".
Внимание! Архив погоды МЕТАР в базе сайта по станциям, не включенным в климатический монитор, хранится не более 60 дней. Нет смысла пытаться выбрать более раннюю дату.
*Определитесь, кто Вы:
Внимание! Время в таблицах - местное (без учета летнего времени). Для получения всемирного времени необходимо вычесть поправку, которая равна -8 ч.
Смотрите также архив погоды в соседних городах и на ближайших метеорологических станциях:
Партнеры нашего сайта:      
Пояснения к столбцам:
  • Ветер - указаны скорость ветра в м/с - средняя за 10 мин, порывы в срок и между сроками (в фигурных скобках) и направление, откуда дует ветер: С - северный,
  • СВ - северо-восточный, В - восточный, ЮВ - юго-восточный, Ю - южный, ЮЗ - юго-западный, З - западный, СЗ - северо-западный.
  • Видимость - горизонтальная дальность видимости в метрах или километрах. При видимости от 1 до 10 км при отсутствии осадков обычно наблюдается дымка, при ухудшении видимости до 1 км и менее - туман. В сухую погоду видимость может ухудшаться дымом, пылью или мглою.
  • Явления - указаны атмосферные явления, наблюдавшиеся в срок или в последний час перед сроком; фигурными скобками обозначены явления, наблюдавшиеся между сроками (за 1-3 часа до срока); квадратными скобками обозначены град или гололедные отложения с указанием их диаметра в мм.
  • Облачность - указаны через наклонную черту общая и нижняя облачность в баллах и высота нижней границы облаков в метрах; квадратными скобками обозначены формы облаков: Ci - перистые, Cs - перисто-слоистые, Cc - перисто-кучевые, Ac - высококучевые, As - высокослоистые, Sc - слоисто-кучевые, Ns - слоисто-дождевые, Cu - кучевые, Cb - кучево-дождевые. Подробнее классификацию облаков см. в Атласе облаков (PDF).
  • T - Температура воздуха - температура, измеренная на высоте 2 м над землей.
  • Td - Температура точки росы - температура, при понижении до которой содержащийся в воздухе водяной пар достигнет насыщения.
  • f - Относительная влажность воздуха - влажноcть воздуха, измеренная на высоте 2 м над землей.
  • Te - Эффективная температура - температура, которую ощущает одетый по сезону человек в тени. Характеристика душности погоды. При расчете учитывается влияние влажности воздуха и скорости ветра на теплоощущения человека.
  • Tes - Эффективная температура на солнце - температура, которую ощущает человек, с поправкой на солнечный нагрев. Характеристика знойности погоды. Зависит от высоты солнца над горизонтом, облачности и скорости ветра. Ночью, в пасмурную погоду, а также при ветре 12 м/с и более поправка равна нулю.
  • P - Атмосферное давление - приведенное к уровню моря атмосферное давление.
  • Po - Атмосферное давление - измеренное на уровне метеостанции атмосферное давление.
  • Tmin - Минимальная температура - минимум температуры воздуха на высоте 2 м над землей.
  • Tmax - Максимальная температура - максимум температуры воздуха на высоте 2 м над землей.
  • R - Количество осадков - Количество выпавших осадков за период времени, мм. При наведении курсора мыши на число - период времени, за который выпало указанное количество осадков.
  • R24 - Количество осадков - Количество выпавших осадков за 24 часа, мм.
  • S - Снежный покров - Высота снежного покрова, см. При наведении курсора мыши на число - состояние снежного покрова и степень покрытия местности в баллах.